Temp
-22 -22 -22 -21 -22 -22 -22 -22 -23 -21 -22 -22 -23 -23 -22 -22 -22 -22 -22 -22 -22 -21 -21 -21 -21 -21 -21 -22 -22 -22 -22 -23 -23 -23 -23 -23 -23 -23 -23 -23 -24 -23 -23 -23
-22 -22 -22 -21 -22 -21 -22 -22 -22 -22 -22 -23 -23 -22 -22 -22 -22 -22 -22 -22 -22 -21 -21 -21 -21 -21 -22 -22 -22 -22 -23 -23 -24 -24 -24 -24 -24 -23 -24 -24 -24 -24 -24 -24
-22 -22 -22 -21 -22 -22 -22 -22 -22 -22 -22 -23 -22 -22 -22 -22 -22 -22 -22 -22 -22 -22 -22 -22 -21 -21 -21 -21 -22 -22 -22 -23 -23 -24 -25 -25 -25 -24 -24 -24 -25 -25 -25 -25
-22 -22 -22 -22 -22 -22 -21 -22 -22 -22 -22 -22 -23 -22 -22 -22 -22 -22 -22 -22 -22 -22 -22 -21 -21 -21 -21 -21 -21 -21 -22 -22 -23 -24 -24 -25 -25 -25 -25 -25 -25 -25 -25 -26
-22 -22 -22 -22 -23 -22 -22 -23 -22 -22 -22 -22 -23 -22 -22 -22 -22 -23 -22 -22 -22 -22 -21 -21 -21 -20 -20 -20 -21 -22 -23 -23 -24 -25 -26 -26 -26 -26 -25 -25 -25 -26 -26 -26
-23 -22 -22 -23 -23 -23 -22 -23 -23 -23 -23 -23 -22 -23 -23 -23 -23 -22 -22 -21 -21 -21 -20 -20 -20 -20 -20 -21 -21 -22 -22 -23 -25 -25 -26 -26 -26 -26 -25 -26 -26 -26 -26 -26
-23 -23 -22 -23 -23 -23 -23 -23 -23 -23 -23 -23 -23 -23 -22 -22 -22 -22 -21 -21 -20 -20 -20 -20 -20 -20 -21 -21 -21 -22 -23 -24 -25 -25 -25 -25 -25 -26 -25 -26 -26 -26 -26 -26
-23 -23 -22 -23 -23 -23 -23 -23 -23 -23 -23 -23 -23 -23 -22 -22 -21 -21 -21 -20 -20 -20 -20 -20 -20 -21 -21 -21 -22 -22 -23 -24 -25 -25 -25 -25 -25 -25 -25 -25 -26 -26 -26 -27
-23 -23 -23 -23 -23 -23 -23 -23 -23 -23 -23 -23 -23 -23 -22 -21 -21 -21 -20 -20 -20 -20 -20 -21 -21 -21 -21 -22 -22 -23 -23 -24 -25 -25 -25 -25 -25 -26 -26 -26 -26 -26 -27 -27
-23 -23 -23 -23 -23 -23 -23 -23 -23 -22 -23 -23 -23 -23 -22 -21 -21 -21 -20 -20 -20 -20 -21 -21 -21 -22 -22 -22 -22 -23 -23 -24 -25 -25 -26 -26 -26 -26 -26 -26 -26 -27 -27 -27
-23 -22 -22 -23 -23 -23 -23 -23 -23 -23 -23 -23 -23 -22 -22 -21 -21 -21 -20 -20 -21 -21 -21 -21 -22 -22 -22 -22 -23 -23 -24 -24 -24 -25 -25 -26 -27 -27 -27 -27 -27 -27 -27 -27
-23 -23 -23 -23 -23 -23 -23 -23 -23 -23 -23 -23 -23 -23 -22 -22 -21 -21 -21 -21 -21 -21 -21 -22 -22 -22 -23 -23 -23 -24 -24 -24 -25 -25 -26 -26 -27 -27 -27 -27 -27 -28 -28 -28
-23 -23 -23 -23 -23 -23 -23 -23 -23 -23 -23 -23 -23 -22 -22 -22 -21 -21 -21 -21 -21 -21 -22 -22 -22 -23 -23 -23 -24 -24 -24 -25 -25 -26 -26 -27 -27 -27 -28 -28 -28 -28 -28 -28
-24 -23 -23 -23 -23 -23 -23 -23 -24 -24 -23 -23 -23 -23 -22 -22 -21 -21 -21 -21 -21 -22 -22 -22 -23 -23 -23 -24 -24 -25 -25 -26 -26 -26 -27 -27 -27 -28 -28 -28 -28 -29 -29 -29
-23 -24 -24 -24 -24 -23 -24 -24 -24 -24 -24 -24 -23 -23 -22 -22 -21 -21 -21 -22 -22 -22 -22 -23 -23 -24 -24 -24 -25 -25 -25 -26 -26 -27 -27 -27 -28 -28 -28 -28 -28 -28 -29 -29
-24 -24 -24 -24 -24 -24 -24 -24 -24 -24 -24 -23 -23 -23 -22 -22 -22 -22 -22 -22 -22 -22 -23 -23 -24 -24 -24 -25 -25 -26 -26 -26 -27 -27 -27 -28 -28 -28 -28 -28 -29 -29 -29 -30
-24 -24 -24 -24 -24 -24 -24 -24 -24 -24 -24 -23 -23 -23 -23 -22 -22 -22 -22 -23 -23 -23 -24 -24 -24 -25 -25 -25 -26 -27 -27 -27 -27 -28 -28 -28 -28 -29 -29 -29 -29 -30 -30 -30
-24 -24 -24 -24 -24 -24 -24 -24 -24 -24 -24 -23 -23 -23 -23 -22 -23 -23 -23 -23 -24 -24 -24 -25 -25 -25 -26 -26 -27 -27 -28 -28 -28 -28 -29 -29 -29 -29 -29 -30 -30 -31 -31 -31
-24 -24 -24 -24 -25 -25 -24 -24 -24 -24 -24 -24 -23 -23 -23 -23 -23 -24 -24 -24 -25 -25 -25 -26 -26 -26 -27 -27 -27 -28 -28 -28 -29 -29 -29 -29 -29 -30 -30 -31 -31 -31 -31 -31
-25 -25 -25 -25 -25 -25 -24 -24 -25 -24 -24 -24 -23 -23 -24 -24 -24 -25 -25 -25 -26 -26 -26 -27 -27 -27 -27 -28 -28 -28 -28 -29 -29 -29 -29 -30 -30 -31 -31 -31 -31 -31 -31 -31
-25 -25 -25 -25 -25 -25 -25 -24 -24 -24 -24 -24 -24 -24 -24 -25 -25 -25 -26 -26 -26 -27 -27 -27 -27 -28 -28 -28 -28 -29 -29 -29 -29 -30 -30 -31 -31 -31 -31 -31 -31 -31 -31 -31
-25 -25 -25 -25 -25 -25 -25 -24 -24 -24 -24 -24 -24 -25 -25 -26 -26 -26 -26 -27 -27 -27 -27 -28 -28 -28 -28 -29 -29 -29 -29 -29 -30 -30 -31 -31 -31 -31 -31 -31 -31 -31 -31 -32
-25 -25 -25 -25 -25 -25 -25 -25 -25 -25 -25 -25 -26 -26 -26 -26 -27 -27 -27 -27 -27 -28 -28 -28 -28 -28 -29 -29 -29 -29 -30 -30 -31 -31 -31 -31 -31 -31 -31 -31 -31 -32 -32 -32
-26 -25 -25 -25 -25 -25 -26 -26 -26 -26 -26 -26 -26 -26 -27 -27 -27 -27 -27 -28 -28 -28 -28 -28 -29 -29 -29 -29 -29 -30 -30 -31 -31 -31 -31 -31 -31 -31 -31 -32 -32 -32 -32 -33
-26 -26 -26 -26 -26 -26 -26 -27 -26 -26 -26 -27 -27 -27 -27 -27 -27 -28 -28 -28 -28 -28 -29 -29 -29 -29 -29 -30 -30 -30 -31 -31 -31 -31 -31 -31 -31 -31 -32 -32 -32 -33 -33 -33
-26 -26 -26 -26 -26 -26 -26 -27 -27 -27 -27 -27 -27 -27 -28 -28 -28 -28 -28 -28 -29 -29 -29 -29 -29 -29 -30 -30 -30 -31 -31 -31 -31 -31 -31 -31 -32 -32 -32 -33 -33 -33 -34 -34
-26 -27 -27 -27 -27 -27 -27 -27 -27 -27 -28 -28 -28 -28 -28 -28 -28 -28 -29 -29 -29 -29 -29 -30 -30 -30 -30 -31 -31 -31 -31 -31 -31 -31 -32 -32 -32 -33 -33 -33 -34 -34 -35 -35
Height
5631 5629 5629 5630 5630 5631 5627 5628 5623 5624 5621 5623 5623 5621 5616 5620 5618 5616 5614 5613 5610 5609 5607 5606 5604 5602 5600 5597 5595 5592 5588 5585 5583 5581 5577 5574 5572 5569 5567 5565 5563 5561 5560 5557
5622 5622 5621 5619 5620 5622 5621 5619 5616 5614 5611 5613 5611 5608 5610 5611 5608 5606 5606 5604 5601 5600 5599 5597 5596 5595 5593 5591 5588 5585 5582 5579 5575 5572 5569 5567 5565 5563 5560 5558 5556 5555 5554 5551
5612 5613 5611 5609 5616 5611 5609 5607 5604 5604 5605 5605 5603 5605 5605 5603 5601 5598 5598 5596 5593 5592 5591 5591 5590 5589 5587 5584 5581 5578 5574 5571 5568 5565 5562 5560 5558 5556 5554 5552 5550 5548 5547 5545
5604 5603 5601 5606 5603 5599 5598 5598 5596 5596 5599 5599 5599 5599 5598 5594 5592 5591 5590 5588 5587 5587 5586 5586 5585 5584 5582 5579 5576 5573 5569 5565 5562 5559 5556 5554 5552 5551 5548 5546 5544 5542 5540 5538
5596 5596 5595 5598 5595 5593 5591 5594 5592 5593 5593 5593 5592 5590 5589 5588 5586 5586 5584 5582 5583 5583 5583 5582 5580 5579 5577 5574 5571 5568 5564 5559 5556 5553 5550 5548 5546 5545 5543 5541 5539 5536 5534 5533
5591 5589 5587 5592 5588 5587 5586 5588 5589 5589 5590 5589 5587 5586 5585 5582 5581 5581 5580 5579 5579 5579 5578 5578 5577 5575 5572 5569 5566 5562 5558 5555 5552 5549 5546 5544 5543 5541 5538 5536 5534 5532 5530 5527
5586 5583 5586 5585 5580 5582 5585 5587 5584 5583 5584 5583 5582 5582 5580 5578 5577 5577 5576 5576 5576 5576 5575 5574 5573 5570 5567 5564 5561 5558 5554 5551 5549 5546 5543 5541 5539 5536 5534 5531 5528 5526 5524 5522
5580 5579 5581 5581 5579 5579 5580 5580 5579 5580 5580 5578 5577 5576 5575 5574 5573 5574 5573 5573 5573 5573 5572 5571 5569 5566 5562 5559 5556 5553 5550 5547 5544 5542 5539 5536 5534 5531 5529 5526 5524 5521 5517 5515
5575 5576 5577 5577 5577 5575 5575 5575 5575 5575 5574 5573 5572 5571 5570 5570 5570 5570 5569 5570 5569 5569 5568 5566 5564 5561 5557 5555 5551 5548 5545 5542 5539 5536 5534 5531 5528 5526 5523 5521 5518 5516 5513 5509
5570 5571 5571 5571 5571 5571 5571 5570 5569 5569 5567 5567 5567 5566 5566 5565 5566 5566 5566 5566 5565 5564 5563 5560 5558 5555 5552 5550 5546 5543 5540 5537 5533 5531 5528 5525 5522 5521 5518 5515 5512 5509 5506 5503
5562 5559 5563 5566 5562 5566 5565 5564 5563 5563 5562 5562 5562 5561 5561 5560 5561 5561 5561 5561 5560 5559 5557 5555 5553 5550 5547 5544 5540 5537 5534 5531 5528 5525 5521 5519 5516 5513 5511 5507 5504 5501 5497 5494
5559 5557 5558 5559 5559 5560 5560 5559 5558 5557 5556 5557 5558 5556 5556 5556 5556 5555 5555 5555 5554 5553 5551 5549 5546 5544 5541 5538 5535 5532 5529 5525 5522 5519 5515 5512 5509 5506 5502 5498 5495 5491 5488 5484
5551 5553 5553 5555 5555 5555 5555 5554 5552 5552 5550 5550 5551 5551 5551 5550 5550 5550 5549 5549 5548 5547 5545 5542 5540 5537 5534 5531 5529 5525 5522 5518 5515 5512 5508 5505 5501 5497 5493 5489 5485 5481 5478 5475
5547 5548 5549 5550 5550 5549 5550 5548 5547 5545 5545 5544 5544 5545 5545 5544 5545 5545 5544 5543 5542 5540 5539 5536 5533 5531 5527 5524 5522 5518 5515 5510 5507 5504 5500 5496 5494 5490 5486 5481 5477 5472 5468 5464
5543 5542 5543 5544 5543 5544 5543 5541 5541 5540 5539 5539 5539 5539 5539 5539 5539 5539 5538 5537 5536 5533 5531 5528 5526 5524 5520 5517 5514 5511 5507 5503 5499 5495 5491 5487 5483 5479 5475 5471 5466 5462 5457 5451
5536 5536 5536 5537 5536 5537 5536 5535 5535 5534 5535 5534 5534 5534 5533 5533 5533 5533 5531 5530 5528 5526 5523 5521 5518 5516 5512 5509 5506 5502 5498 5494 5491 5486 5482 5478 5473 5468 5463 5458 5453 5448 5442 5437
5527 5528 5528 5528 5528 5528 5528 5529 5529 5529 5529 5528 5529 5529 5528 5528 5527 5526 5525 5523 5520 5517 5515 5513 5510 5507 5503 5500 5497 5493 5488 5484 5480 5476 5471 5467 5461 5457 5452 5446 5440 5434 5428 5423
5519 5519 5520 5521 5521 5521 5522 5523 5522 5523 5523 5523 5523 5523 5522 5522 5521 5519 5518 5515 5512 5509 5507 5504 5501 5498 5494 5491 5488 5484 5478 5474 5470 5466 5462 5456 5450 5445 5439 5433 5427 5421 5415 5409
5511 5512 5513 5514 5514 5515 5515 5515 5516 5518 5518 5517 5517 5517 5517 5516 5515 5513 5510 5507 5504 5502 5499 5496 5492 5489 5485 5481 5478 5474 5470 5465 5460 5455 5450 5444 5438 5432 5426 5419 5413 5407 5401 5395
5504 5504 5506 5507 5508 5508 5509 5510 5511 5512 5512 5512 5512 5511 5510 5509 5507 5505 5502 5499 5497 5494 5490 5487 5483 5479 5475 5471 5467 5462 5459 5455 5450 5444 5438 5432 5425 5419 5413 5407 5400 5394 5388 5382
5497 5498 5499 5501 5502 5504 5505 5506 5506 5506 5506 5506 5506 5505 5503 5501 5499 5496 5493 5490 5488 5485 5481 5477 5473 5470 5466 5461 5457 5452 5448 5442 5437 5431 5425 5419 5413 5407 5401 5395 5388 5382 5376 5369
5494 5493 5495 5496 5498 5499 5500 5500 5501 5501 5501 5500 5499 5497 5495 5493 5491 5488 5484 5482 5480 5476 5472 5468 5464 5460 5456 5451 5447 5442 5437 5431 5425 5419 5413 5407 5400 5394 5388 5382 5375 5369 5363 5356
5491 5491 5492 5493 5494 5494 5495 5495 5495 5495 5494 5492 5491 5489 5487 5485 5483 5480 5477 5474 5471 5466 5462 5459 5454 5450 5445 5441 5436 5431 5425 5418 5413 5407 5400 5394 5388 5382 5375 5369 5362 5356 5348 5341
5487 5488 5488 5488 5489 5489 5490 5489 5488 5487 5486 5485 5484 5482 5480 5478 5474 5471 5468 5465 5461 5456 5452 5448 5444 5439 5435 5430 5424 5418 5413 5407 5401 5394 5388 5381 5375 5369 5362 5355 5348 5342 5334 5327
5482 5482 5483 5483 5483 5483 5483 5482 5481 5480 5479 5477 5476 5474 5471 5468 5465 5462 5459 5455 5450 5446 5442 5438 5433 5428 5423 5417 5412 5406 5400 5394 5388 5382 5375 5369 5362 5356 5349 5342 5335 5328 5321 5314
5476 5477 5477 5476 5476 5476 5476 5475 5474 5472 5470 5469 5467 5465 5462 5459 5455 5452 5449 5444 5440 5436 5432 5427 5422 5417 5411 5405 5400 5394 5388 5382 5376 5369 5363 5356 5349 5342 5336 5329 5322 5315 5308 5301
5470 5470 5471 5470 5469 5468 5468 5467 5465 5464 5462 5459 5457 5455 5452 5449 5446 5442 5438 5434 5430 5425 5421 5416 5411 5405 5400 5394 5387 5381 5376 5370 5363 5357 5350 5343 5337 5330 5323 5316 5309 5302 5296 5289
Wind_Speed
26 29 30 31 34 35 39 39 44 40 41 36 36 39 41 34 29 28 31 35 35 33 35 38 34 30 31 33 34 32 31 29 26 26 27 27 27 29 31 31 29 28 27 26
28 29 32 36 37 35 36 37 40 40 41 31 31 37 32 32 29 28 32 34 37 34 36 30 28 29 29 29 29 31 30 30 30 31 31 31 31 28 25 26 29 27 25 24
29 29 34 38 29 33 34 30 30 29 27 25 28 27 30 26 33 31 27 27 21 22 23 21 25 26 27 28 29 30 31 31 30 29 28 29 30 26 24 23 26 27 24 22
30 32 34 27 24 28 29 24 26 24 19 18 22 25 26 27 30 29 29 20 16 15 18 21 22 23 24 25 26 27 27 26 27 27 27 26 24 25 23 22 23 26 25 21
29 28 31 24 21 24 25 17 20 17 13 21 22 25 24 30 32 25 17 16 14 16 17 18 19 19 20 22 22 22 22 22 22 21 22 21 21 23 24 19 20 21 22 22
23 25 25 13 19 19 13 14 18 21 17 20 22 20 19 21 21 14 14 14 13 13 14 14 14 16 18 19 20 21 21 19 19 20 18 18 20 22 19 17 17 19 21 22
17 22 15 12 22 19 17 10 12 17 17 21 19 21 20 19 16 15 14 12 11 11 11 13 14 17 19 19 21 21 21 19 19 20 18 19 20 21 20 18 18 18 18 20
20 22 15 16 16 15 18 17 19 18 19 23 20 20 20 16 13 12 12 12 12 12 13 15 17 18 19 20 21 22 21 20 19 21 21 21 21 23 25 24 20 20 21 21
26 25 19 19 15 12 14 16 18 20 22 22 18 21 18 14 12 10 12 14 14 16 16 18 20 20 22 22 22 22 23 22 22 22 23 23 24 25 26 26 26 24 22 23
20 18 21 14 17 20 16 20 20 20 22 17 18 20 17 14 13 11 14 15 16 17 19 21 22 22 24 24 24 24 24 24 24 24 25 25 26 27 29 29 30 30 30 30
23 24 18 22 18 18 17 23 22 20 20 18 18 20 17 15 14 14 15 17 18 20 22 23 23 24 25 25 25 26 26 26 27 26 27 26 28 30 31 33 34 34 35 35
25 13 15 20 21 21 23 24 24 24 23 19 17 19 18 18 16 16 17 18 20 21 23 25 24 24 25 25 26 27 27 28 28 28 29 29 30 32 32 33 34 34 35 36
22 21 20 21 23 24 25 25 25 22 20 19 17 19 18 19 17 18 20 20 20 23 24 25 26 27 28 27 27 28 29 29 30 29 29 30 31 32 34 34 35 36 37 37
25 25 21 22 23 22 20 21 20 20 20 21 20 20 19 20 18 19 21 21 23 26 25 26 27 28 29 28 29 29 29 30 32 31 32 32 32 33 34 35 36 38 39 40
26 28 25 23 26 23 22 23 21 21 20 20 20 21 19 19 19 21 21 23 26 28 30 29 28 28 29 30 30 31 32 33 32 33 34 34 35 36 37 38 40 41 42 44
28 31 28 28 28 26 27 24 23 22 21 20 19 20 19 19 20 21 25 28 29 31 30 31 31 30 30 30 32 34 34 35 35 35 36 36 37 39 40 42 44 46 48 49
25 29 31 31 27 26 23 23 26 21 20 19 18 18 19 19 20 24 26 29 32 30 29 30 31 31 30 31 32 34 35 36 36 37 37 38 40 42 45 47 49 50 50 48
25 27 27 24 22 22 23 22 21 19 19 18 17 18 19 21 24 26 29 31 30 30 29 29 30 31 33 32 35 35 36 37 38 38 38 41 44 47 49 49 48 49 50 51
24 25 26 26 26 23 22 21 20 18 17 16 17 19 21 22 25 29 30 29 29 30 29 30 31 32 33 36 37 36 36 37 37 39 42 45 47 48 48 49 49 48 47 47
23 23 23 21 20 21 20 18 16 16 16 17 19 20 23 27 30 29 28 29 30 30 30 30 32 34 36 36 36 37 36 37 39 43 45 46 46 46 44 44 46 46 46 47
16 16 15 15 14 13 14 14 14 15 17 19 20 24 28 29 28 28 29 31 29 30 31 33 35 35 35 36 36 37 38 41 44 45 45 45 43 44 46 47 47 47 47 48
10 10 12 11 13 14 14 14 14 16 18 22 25 26 27 27 28 28 29 30 30 31 33 34 35 36 36 36 37 39 42 45 45 45 46 45 47 48 48 47 47 47 49 51
12 12 12 13 13 13 13 15 17 20 23 25 25 26 26 27 28 29 30 31 31 33 35 35 35 36 36 37 40 43 46 45 45 47 47 48 48 47 47 47 48 50 51 51
15 14 14 14 14 15 17 20 21 23 25 25 25 26 28 28 29 31 32 32 33 36 36 36 37 37 38 40 43 45 44 46 47 48 48 48 47 46 47 49 50 50 50 50
20 19 18 19 20 21 21 22 25 26 25 25 26 28 29 30 32 33 33 34 36 36 37 37 38 39 42 44 45 45 47 47 48 47 46 45 46 48 49 49 50 49 49 48
20 20 20 22 22 23 23 24 25 25 26 27 29 31 32 32 34 35 35 36 37 37 38 38 40 43 45 45 46 47 47 47 45 44 45 47 48 48 49 48 48 48 48 47
19 19 19 21 22 23 23 23 24 26 28 30 32 32 34 35 35 36 36 36 37 37 38 41 43 44 45 45 46 46 44 44 46 47 47 48 48 49 48 47 48 47 47 48
Wind_Direction
269 264 263 264 264 265 269 277 276 289 284 282 273 278 276 289 279 284 288 291 289 286 286 291 291 288 284 289 287 290 295 292 289 285 291 296 301 302 297 291 291 292 295 301
259 265 268 266 265 272 278 276 273 275 282 287 276 270 279 279 287 288 292 291 285 283 285 279 280 285 289 287 291 292 293 294 293 292 290 289 295 297 300 305 295 289 291 294
268 271 267 267 283 276 279 274 270 268 272 270 270 274 278 285 289 296 295 295 280 272 271 275 283 284 289 295 299 304 304 303 303 304 298 296 297 297 297 304 300 286 284 289
276 274 272 286 291 282 281 271 253 264 271 277 274 275 282 289 295 293 295 288 275 272 272 281 286 292 296 300 302 302 302 303 301 299 299 297 302 301 296 301 303 296 279 280
275 278 280 289 282 287 283 260 253 252 263 280 286 297 291 280 287 292 286 283 281 276 282 287 291 293 294 297 300 303 307 309 312 318 310 306 305 304 301 314 314 307 300 288
277 283 284 299 279 271 267 248 260 264 286 287 294 290 290 288 288 287 282 283 289 295 292 288 291 297 299 302 312 318 322 326 323 330 330 324 313 314 305 308 313 316 311 299
285 277 294 292 269 255 241 274 278 288 296 302 282 289 291 294 280 282 285 294 291 281 283 292 296 299 303 311 313 317 320 320 320 324 321 316 315 309 301 304 303 303 302 301
268 262 288 296 277 270 266 274 277 284 288 301 282 283 288 283 279 282 284 276 273 277 286 294 295 300 305 308 311 311 310 310 309 310 312 312 311 309 303 297 296 296 298 301
266 258 276 288 284 293 274 270 285 287 288 287 274 277 281 277 280 283 273 274 279 283 288 292 298 302 303 305 306 305 305 304 302 303 304 305 306 306 302 300 299 296 294 294
264 266 267 283 275 278 287 287 291 290 287 283 269 275 275 275 279 277 269 271 275 281 288 294 299 303 304 305 305 304 303 302 300 300 299 303 304 305 303 299 298 297 297 297
245 298 248 255 280 275 284 291 297 296 296 274 270 277 276 277 278 274 271 272 276 281 288 294 301 302 305 306 307 307 306 304 303 303 302 302 302 302 301 299 298 298 299 300
267 286 276 266 272 276 286 288 291 293 295 274 265 272 272 274 275 274 273 274 278 285 293 295 298 303 305 306 308 309 308 308 308 308 306 306 304 301 300 299 298 299 299 299
261 265 259 265 274 273 284 289 289 285 285 278 268 270 268 270 271 272 274 276 280 289 293 298 302 301 301 306 309 309 310 308 308 309 308 306 304 302 302 302 301 300 300 299
256 252 252 267 276 276 283 290 288 281 282 279 271 271 268 269 271 271 273 280 289 291 292 296 300 305 306 309 311 310 310 308 309 309 306 304 302 300 299 299 299 299 298 297
244 248 256 264 275 274 280 286 292 275 278 276 269 270 270 272 273 274 280 283 291 296 293 291 295 302 304 307 309 309 308 306 306 305 304 304 302 301 301 300 299 299 297 295
246 251 259 270 276 268 277 278 289 277 272 274 272 272 273 274 279 287 289 292 294 295 293 297 296 296 300 304 308 308 306 305 304 304 305 304 303 302 303 302 300 299 297 297
255 256 264 273 273 269 264 270 280 265 268 271 274 275 276 282 289 289 293 298 296 294 295 298 300 298 298 301 306 309 304 303 304 304 304 303 303 303 302 300 300 301 301 301
260 261 265 267 264 269 271 270 265 257 265 271 278 282 285 289 293 294 297 298 298 298 299 299 300 301 302 300 306 307 303 303 303 304 304 303 303 302 302 303 304 303 303 302
264 262 262 264 263 267 269 263 254 259 265 275 283 287 291 294 296 298 297 295 298 302 301 300 300 300 300 303 304 303 302 303 303 304 304 304 304 305 305 305 306 306 306 306
266 260 254 254 257 259 259 257 254 262 271 279 284 288 292 295 298 297 295 294 300 302 301 300 299 300 302 303 303 303 303 304 305 305 305 306 307 308 309 308 307 307 307 307
257 253 244 241 241 253 254 256 261 270 276 280 286 293 295 295 296 297 294 296 300 300 300 299 300 302 303 303 303 303 305 305 306 306 308 309 308 308 308 307 307 307 308 307
261 247 221 233 246 249 254 261 268 273 279 288 293 294 294 294 295 294 295 298 300 301 299 301 303 303 303 302 302 303 304 305 306 307 309 307 307 308 308 307 307 308 308 308
250 246 242 244 248 255 262 267 274 283 289 292 293 293 293 294 294 295 298 300 301 299 301 304 303 303 302 302 303 304 305 306 306 307 307 307 307 308 308 308 309 309 310 310
249 250 250 254 256 260 270 278 282 287 292 292 292 292 293 295 295 297 298 300 300 300 303 304 304 303 302 303 304 305 306 306 307 307 307 308 308 309 309 310 310 311 310 310
250 252 254 260 265 273 278 280 283 287 290 292 291 292 294 297 297 298 300 301 301 303 304 304 303 303 303 305 306 307 307 308 308 308 309 310 310 310 311 311 310 310 310 310
268 267 269 274 276 277 280 283 286 289 291 291 293 296 298 299 299 301 302 302 303 303 303 303 303 304 305 306 307 308 309 309 309 310 310 311 311 311 311 310 310 311 310 310
267 270 274 276 280 282 283 285 289 290 292 293 295 298 299 300 301 302 302 303 303 303 304 304 305 307 307 308 309 310 310 310 310 311 312 312 312 312 311 311 311 311 310 310